#timestamp,LO_Frequency,Hit,StdDev 
1663009215.3,286046999.2,N
1663009235.1,286046999.0,N
1663009255.9,286046999.4,N
1663009275.7,286046999.6,N
1663009295.6,286046996.6,Y
1663009315.4,286046998.9,P
1663009335.2,286046999.6,N
1663009355.1,286046996.8,P
1663009356.0,286046996.8,N
1663009375.8,286046999.5,N
1663009395.7,286046998.4,N
1663009415.5,286046999.3,N
1663009435.3,286046999.5,N
1663009455.2,286046999.4,N
1663009475.0,286047001.0,N
1663009475.9,286047001.0,N
1663009495.7,286047000.6,N
1663009515.6,286046998.1,N
1663009535.4,286046998.1,N
1663009555.3,286047001.2,N
1663009575.1,286046998.4,N
1663009595.8,286046998.6,N
1663009615.7,286047001.1,N
1663009635.5,286047001.2,N
1663009655.3,286046998.6,N
1663009675.2,286046997.7,N
1663009695.0,286046997.7,N
1663009695.9,286046997.7,N
1663009715.8,286046995.5,Y
1663009735.6,286046997.7,P
1663009755.4,286046997.8,P
1663009775.3,286046997.8,P
1663009795.1,286046996.6,Y
1663009815.9,286046998.4,P
1663009835.7,286047001.2,P
1663009855.5,286046998.7,N
1663009875.4,286046998.7,N
1663009895.2,286047001.1,N
1663009915.0,286046998.1,N
1663009915.9,286046998.1,N
1663009935.8,286046998.5,N
1663009955.6,286046998.5,N
1663009975.5,286047001.0,N
1663009995.3,286047000.6,N
1663010015.1,286046998.3,N
1663010035.9,286046999.2,N
1663010055.7,286046999.2,N
1663010075.5,286046996.9,N
1663010095.4,286046997.4,N
1663010115.2,286046997.8,N
1663010135.1,286046997.3,N
1663010136.0,286046997.3,N
1663010155.8,286046997.6,N
1663010175.6,286046997.4,N
1663010195.5,286046996.9,N
1663010215.3,286046999.4,N
1663010235.1,286046997.1,N
1663010255.9,286046996.8,N
1663010275.7,286046996.9,N
1663010295.6,286046997.7,N
1663010315.4,286046997.0,N
1663010335.2,286046997.7,N
1663010355.1,286046999.5,N
1663010356.0,286046999.5,N
1663010375.8,286046996.9,N
1663010395.2,286046997.1,N
1663010415.1,286046996.7,N
1663010416.0,286046996.7,N
1663010435.8,286046997.2,N
1663010455.7,286046997.4,N
1663010475.5,286046996.5,Y
1663010495.3,286047001.2,P
1663010515.2,286046998.5,N
1663010535.0,286046998.7,N
1663010535.9,286046998.7,N
1663010555.8,286046998.2,N
1663010575.6,286046999.5,N
1663010595.4,286046998.9,N
1663010615.3,286046996.5,Y
1663010635.1,286046998.9,P
1663010655.9,286046999.5,P
1663010675.7,286046998.5,P
1663010695.5,286047000.6,N
1663010715.4,286047000.5,N
1663010735.2,286046999.7,N
1663010755.0,286046999.9,N
1663010755.9,286046999.9,N
1663010775.8,286047000.0,N
1663010795.6,286047000.9,N
1663010815.5,286046998.6,N
1663010835.3,286046999.4,N
1663010855.1,286047000.8,N
1663010875.9,286047001.1,N
1663010895.7,286046998.8,N
1663010915.5,286046998.9,N
1663010935.4,286046998.5,N
1663010955.2,286046999.0,N
1663010975.0,286046998.9,N
1663010976.0,286046998.9,N
1663010995.8,286046996.6,Y
1663011015.6,286046996.7,P
1663011035.5,286046999.4,N
1663011055.3,286046999.2,N
1663011075.1,286046999.2,N
1663011095.9,286046998.8,N
1663011115.7,286046998.3,N
1663011135.6,286046999.3,N
1663011155.4,286046998.8,N
1663011175.2,286046999.6,N
1663011195.1,286046996.5,Y
1663011196.0,286046996.5,P
1663011215.8,286047001.1,N
1663011235.7,286047000.6,N
1663011255.5,286047001.2,N
1663011275.3,286047000.8,N
1663011295.2,286047000.7,N
1663011315.9,286047000.9,N
1663011335.8,286047000.7,N
1663011355.6,286047000.7,N
1663011375.4,286047000.2,N
1663011395.3,286047000.4,N
1663011415.1,286047000.9,N
1663011435.9,286047000.4,N
1663011455.7,286047002.8,N
1663011475.5,286047001.0,N
1663011495.4,286047000.0,N
1663011515.2,286047000.4,N
1663011535.0,286047001.0,N
1663011535.9,286047001.0,N
1663011555.8,286047000.4,N
1663011575.6,286047001.2,N
1663011595.5,286047000.8,N
1663011615.3,286047000.8,N
1663011635.1,286047000.4,N
1663011655.9,286047001.0,N
1663011705.7,286047000.0,E
1663011715.7,286046999.8,N
1663011735.5,286047000.2,P
1663011755.3,286047002.4,P
1663011775.2,286047002.5,N
1663011795.0,286047000.1,N
1663011795.9,286047000.1,N
1663011815.7,286046999.9,N
1663011835.6,286047000.0,N
1663011855.4,286047002.6,N
1663011875.3,286047001.7,N
1663011895.1,286047001.6,N
1663011896.0,286047001.6,N
1663011915.8,286047001.7,N
1663011935.7,286047001.7,N
1663011955.5,286047001.8,N
1663011975.3,286047002.1,N
1663011995.2,286047001.8,N
1663012015.0,286047002.3,N
1663012015.9,286047002.3,N
1663012035.8,286047004.0,Y
1663012055.6,286047000.2,P
1663012075.4,286047000.1,N
1663012095.3,286046999.8,N
1663012115.1,286047001.5,N
1663012135.9,286047002.6,Y
1663012155.7,286046999.9,P
1663012175.5,286046999.8,N
1663012195.4,286047000.3,N
1663012215.2,286046999.7,N
1663012235.0,286047002.3,Y
1663012236.0,286047002.3,P
1663012255.8,286047002.0,N
1663012275.6,286047002.5,N
1663012295.5,286047002.1,N
1663012315.3,286047002.5,N
1663012335.1,286047004.3,Y
1663012355.9,286047002.7,P
1663012375.7,286047002.1,P
1663012395.6,286047002.5,P
1663012415.4,286046999.8,N
1663012435.2,286047002.7,N
1663012455.1,286047000.6,N
1663012456.0,286047000.6,N
1663012475.8,286047000.5,N
1663012495.6,286047002.3,N
1663012515.5,286046999.8,N
1663012535.3,286046999.7,N
1663012555.2,286046999.7,N
1663012575.9,286047000.4,N
1663012595.7,286046998.5,N
1663012615.6,286047000.3,N
1663012635.4,286047000.3,N
1663012655.2,286047001.0,N
1663012675.1,286046999.9,N
1663012676.0,286046999.9,N
1663012695.8,286047000.2,N
1663012715.7,286047002.7,N
1663012735.5,286047001.7,N
1663012755.3,286047002.3,N
1663012775.2,286047002.3,N
1663012795.0,286046999.7,N
1663012795.9,286046999.7,N
